Location: Little Baddow
(51.7333°N, 0.5667°E)
Time: 23:32:24
(UTC+00:00)

NOSS 2-1 (D) - Pass Details

Date: 08 November 2025
Orbit: 374 x 1681 km, 63.3° (Epoch: 04 December)

Event Time Altitude Azimuth Distance (km) Brightness Sun altitude
Exits shadow 06:02:02 13° 265° (W) 1,306 4.7 -9.9°
Maximum altitude 06:04:24 30° 325° (NW) 726 3.5 -9.5°
Drops below altitude 10° 06:07:06 10° 30° (NNE) 1,395 5.6 -9.1°
Sets 06:09:13 0° 42° (NE) 2,262 6.8 -8.8°
